Location: Newark
(49.8969°N, 3.3422°E)
Time: 21:05:12
(UTC+00:00)

A-11 Canister half - Pass Details

Date: 20 January 2020
Orbit: 1517 x 1683 km, 47.2° (Epoch: 22 February)

Event Time Altitude Azimuth Distance (km) Brightness Sun altitude
Exits shadow 06:51:04 - 283° (WNW) 3,925 10.5 -7.1°
Reaches altitude 10° 06:51:53 10° 281° (W) 3,685 10.4 -7.0°
Maximum altitude 07:00:15 40° 216° (SW) 2,124 9.7 -5.8°
Drops below altitude 10° 07:08:47 10° 151° (SSE) 3,749 12.0 -4.5°
Sets 07:12:07 0° 144° (SE) 4,753 12.9 -4.1°
